2016-044B

Last updated on Fri Jul 08 2016 09:37:07 GMT+0000 (Coordinated Universal Time)

1 41640U 16044B 16190.22653912 .02045062 12102-4 49257-3 0 9996 2 41640 51.6399 313.1455 0018759 71.2567 285.5623 16.28119472 169

Satellite not in orbit